Location: Aldenham
(51.6667°N, 0.3500°W)
Time: 17:30:40
(UTC+00:00)

Vanguard 2 Rocket - Pass Details

Date: 21 February 2026
Orbit: 553 x 3286 km, 32.9° (Epoch: 11 March)

Event Time Altitude Azimuth Distance (km) Brightness Sun altitude
Rises 12:27:08 0° 237° (WSW) 7,251 12.0 27.8°
Reaches altitude 10° 12:32:42 10° 230° (SW) 6,208 11.9 27.8°
Maximum altitude 12:48:56 36° 174° (S) 3,847 12.0 27.5°
Drops below altitude 10° 13:00:53 10° 115° (ESE) 4,596 10.7 27.1°
Sets 13:04:16 0° 106° (ESE) 5,247 10.8 27.0°
